Location: Terra Rouge Observatory
(46.0000°N, 62.7500°W)
Time: 04:57:08
(UTC-03:00)

NOSS 3-1 (A) - Visible Passes

Search period start: 19 April 2015 00:00
Search period end: 29 April 2015 00:00
Orbit: 886 x 1327 km, 63.4° (Epoch: 22 March)

Date Brightness Start Highest point End Pass type
(mag) Time Alt. Az. Time Alt. Az. Time Alt. Az.
19 Apr 5.5 04:17:11 10° SSE 04:21:21 20° ESE 04:25:57 10° ENE visible
20 Apr 5.9 03:35:30 10° ESE 03:37:08 11° ESE 03:39:12 10° E visible
20 Apr 3.8 05:20:48 10° SSW 05:26:47 68° ESE 05:33:27 10° NE visible
21 Apr 4.4 04:36:48 11° S 04:42:17 43° ESE 04:48:30 10° NE visible
22 Apr 5.0 03:53:47 13° SSE 03:57:55 27° ESE 04:03:18 10° ENE visible
22 Apr 3.7 05:42:13 10° SW 05:48:19 65° NW 05:55:05 10° NE visible
23 Apr 5.5 03:10:43 12° SE 03:13:38 16° ESE 03:17:34 10° ENE visible
23 Apr 3.5 04:58:10 14° SW 05:03:34 87° SE 05:10:20 10° NE visible
24 Apr 3.9 04:15:02 22° SSW 04:18:58 58° ESE 04:25:29 10° NE visible
25 Apr 4.5 03:31:50 25° SSE 03:34:31 36° ESE 03:40:28 10° NE visible
25 Apr 4.0 05:19:17 10° WSW 05:25:14 52° NW 05:31:55 10° NE visible
26 Apr 5.0 02:48:36 20° SE 02:50:11 23° ESE 02:55:07 10° ENE visible
26 Apr 3.6 04:36:03 21° SW 04:40:23 75° NW 04:47:11 10° NE visible
27 Apr 5.5 02:05:19 13° ESE 02:05:57 13° ESE 02:08:53 10° ENE visible
27 Apr 3.5 03:52:46 33° SSW 03:55:42 75° SE 04:02:24 10° NE visible
28 Apr 4.0 03:09:26 38° SSE 03:11:10 48° ESE 03:17:30 10° NE visible
28 Apr 4.3 04:56:53 13° WSW 05:02:14 43° NW 05:08:44 10° NNE visible
